Lid_Strength_Index
2 2 2 2 2 2 2 2 1 1 2 2 4 5 6 7 8 8 8 9 9 9 8 8 9 9 10 10 10 10 10 11 12 11 8 6 7 7 7 7 7 7 6
2 2 2 2 2 2 2 2 1 2 3 4 5 7 7 8 9 9 10 10 10 10 10 10 10 10 11 11 11 11 11 11 10 9 8 7 8 8 8 8 8 7 8
4 3 3 4 3 2 2 2 2 4 4 6 7 9 9 9 9 10 9 10 11 11 11 12 12 12 12 12 12 11 12 10 9 10 10 9 9 9 9 8 9 9 8
3 2 3 3 4 2 2 4 4 5 6 8 9 9 10 9 10 10 11 12 12 12 12 12 12 13 14 13 12 12 10 10 10 10 10 10 10 9 10 10 10 9 9
3 3 3 4 3 4 4 5 6 7 8 9 10 10 10 10 10 11 12 11 12 12 12 12 13 11 10 10 12 12 10 10 11 11 11 11 11 10 11 10 10 10 9
4 3 4 5 4 4 5 7 9 10 10 9 10 11 11 11 11 10 10 11 11 12 13 14 14 13 13 11 8 5 8 10 11 11 11 11 11 11 10 10 11 12 12
3 4 5 6 7 7 7 9 10 10 10 11 11 11 12 11 12 11 11 12 12 12 14 15 15 14 14 12 8 6 6 6 7 10 12 10 11 11 10 11 11 11 10
5 5 6 6 7 9 9 9 10 10 11 12 11 11 11 12 13 12 12 13 14 15 16 16 16 16 12 10 11 10 10 10 10 9 10 10 11 10 10 10 10 9 8
6 6 6 7 7 9 10 10 11 11 12 12 12 12 13 13 13 13 14 15 16 17 16 16 16 16 12 11 11 11 12 11 8 7 8 8 9 9 9 10 10 10 10
7 8 7 8 9 10 10 11 11 11 12 12 13 13 13 13 13 13 13 15 16 17 17 16 13 12 11 11 13 12 13 13 11 10 10 10 10 9 8 9 9 10 10
8 9 9 10 10 11 11 11 12 12 12 13 14 14 14 13 12 12 12 14 15 16 16 15 13 11 11 11 11 13 13 11 10 10 11 11 10 9 9 9 8 8 10
9 9 10 10 10 12 12 12 12 13 14 14 15 15 15 14 13 13 13 13 13 15 14 13 13 11 11 11 11 11 10 10 10 11 12 11 10 10 9 8 7 8 8
9 11 11 11 11 11 12 12 13 13 14 14 16 16 16 16 16 14 14 13 11 13 12 12 11 11 10 10 10 10 10 12 11 12 13 11 10 9 8 7 7 8 8
10 11 11 11 12 12 12 12 13 14 15 15 16 16 17 17 17 16 15 14 11 11 10 11 10 10 10 9 11 11 10 11 11 13 11 10 9 9 8 8 9 9 10
11 11 11 12 14 15 16 13 14 13 14 15 15 14 15 17 17 15 13 13 13 13 11 11 12 12 12 12 12 11 11 11 12 12 10 10 9 9 8 8 9 10 11
12 13 13 14 14 15 15 16 15 14 14 14 15 16 17 16 15 14 13 12 11 11 12 13 13 13 13 13 12 12 12 11 12 10 10 10 9 9 8 8 9 10 11
13 14 14 14 15 15 15 16 18 16 15 15 15 15 16 15 14 12 12 11 11 11 12 13 13 13 13 13 13 13 13 13 11 10 10 10 9 8 8 9 9 10 11
12 13 13 14 14 15 15 17 16 16 17 17 16 16 15 14 13 12 12 11 12 12 13 13 13 13 13 13 13 13 13 13 12 11 10 9 8 8 9 10 10 11 11
12 12 13 14 14 14 15 16 16 16 17 18 17 16 16 13 13 13 11 12 13 13 13 13 13 13 13 14 14 14 13 13 13 12 11 10 9 9 10 9 9 11 11
12 13 14 14 14 15 16 16 16 15 16 16 16 15 13 12 12 12 12 12 12 13 13 13 13 13 14 15 15 15 14 13 13 12 11 10 9 9 10 10 10 10 10
12 12 14 13 14 15 15 15 14 14 14 14 13 13 13 12 12 12 12 12 13 13 13 13 13 14 15 15 15 15 15 14 14 12 11 10 10 10 10 11 10 10 10
12 11 12 13 13 14 14 14 13 13 13 13 13 12 13 11 12 12 12 12 12 12 13 13 14 14 15 15 15 16 16 16 14 13 12 11 10 10 10 11 11 10 10
11 11 12 12 12 13 12 13 13 13 12 12 11 11 12 12 12 13 12 12 13 13 13 14 15 15 15 15 15 15 15 15 15 14 13 11 11 10 11 12 11 11 10
10 11 11 11 11 12 12 13 13 13 12 11 12 12 12 12 12 12 12 13 13 14 14 14 15 15 15 15 15 14 15 14 13 13 12 10 11 11 11 11 11 10 11
10 11 11 11 12 12 13 13 13 12 12 12 12 12 12 12 12 12 13 13 14 14 14 15 15 15 15 15 14 14 13 13 12 12 11 10 11 11 11 11 11 11 11
10 10 11 11 12 12 12 12 12 12 12 12 12 12 12 13 13 13 13 14 14 15 15 16 16 15 15 15 14 13 13 12 12 11 10 10 11 11 12 12 12 11 11